ROMMA est une association bénévole à but non lucratif. Votre soutien est indispensable : ADHERER à ROMMA ou FAIRE un DON

Chambon - (38, Isère)

Oisans (2460 m)   Longitude: 06° 10' 42" E   Latitude: 45° 01' 32" N Station partenaire n°803
 

Détail journalier du     <<     >>

Température Humidité Vent Dir Rafale Dir. rafale Neige 1 Neige 2
Heure (°C) (%) (km/h) (km/h) (cm) (cm)
01:00 -6.2985SO10OSO072
02:00 -6.5986SO10OSO073
03:00 -6.89810OSO15OSO074
04:00 -6.9988SO14OSO074
05:00 -7.1987SO13SO073
06:00 -7.4983S7S073
07:00 -7.4981NE6NE072
08:00 -7.1984NE7SO071
09:00 -7.8974SO11SO071
10:00 -4.3952NE8SO069
11:00 -3.0952NNE8NE068
12:00 -2.3973NNE9OSO068
13:00 -3.6932SO8OSO067
14:00 -2.7921NE4NE066
15:00 -5.8933NE6ENE067
16:00 -6.5935N8N067
17:00 -7.9965N7OSO067
18:00 -8.9983SO7SO067
19:00 -9.1972SSO9OSO067
20:00 -9.0972SSO6SSO067
21:00 -9.2982ESE7OSO066
22:00 -8.9952E6ESE066
23:00 -8.7953ENE6E066
minuit -8.7896ENE12ENE066

Graphique du 08-11-2019

 

Serveur OMMA